Dewpoint
53 53 53 54 54 54 54 55 55 55 55 55 55 55 54 54 55 56 57 57 57 58 57 57 57 58 51 43 42 51 51 50 52 50 48 47 44 44 42 42 42 40 41 42 44 43 42
53 54 54 54 53 54 54 55 54 55 55 55 55 54 54 54 54 55 56 56 57 56 56 57 57 58 49 39 47 50 49 50 50 49 47 46 44 45 42 41 39 41 42 42 43 41 40
53 53 54 53 53 54 54 54 54 55 55 55 55 55 54 54 55 55 56 56 56 56 56 57 57 53 45 41 47 50 48 49 50 49 47 48 46 44 44 40 42 42 40 41 42 40 38
53 52 53 53 54 54 54 54 54 54 55 55 55 55 55 55 56 55 56 56 56 56 56 56 57 51 41 48 48 47 48 47 48 49 48 49 48 46 44 43 41 41 39 35 37 40 40
53 52 52 52 53 53 54 54 54 54 54 54 54 54 55 56 56 56 56 56 56 57 56 56 51 47 39 51 47 47 48 47 48 48 48 47 47 43 44 40 38 39 34 35 35 39 39
52 53 53 54 54 54 54 54 55 55 55 55 55 54 55 55 56 56 56 55 55 55 53 50 47 38 40 39 44 46 48 48 47 47 46 45 44 39 38 38 33 33 34 32 34 36 37
52 53 55 55 54 54 55 55 55 55 55 56 55 55 55 55 56 56 53 46 38 41 42 38 35 37 35 45 46 45 47 46 46 45 41 42 36 31 33 35 36 36 33 30 32 36 36
52 54 54 54 55 55 55 55 55 56 56 56 55 55 55 54 55 55 51 42 42 42 36 38 37 32 36 40 38 44 46 42 42 37 39 36 33 36 37 35 34 33 30 29 32 35 35
52 54 54 52 53 53 53 55 56 56 56 56 55 55 55 55 54 48 41 42 45 45 39 36 34 34 37 39 36 39 42 39 35 35 34 28 32 36 35 34 33 33 30 32 31 34 32
57 56 56 56 56 55 54 54 55 56 56 56 56 55 55 54 47 43 40 45 46 45 33 34 28 33 37 40 34 39 43 38 33 32 30 28 36 36 35 35 35 32 36 35 33 30 25
55 55 54 54 54 54 54 54 54 54 55 55 55 55 55 53 45 41 43 45 44 41 10 26 29 36 35 32 31 35 42 37 30 28 27 24 33 36 35 35 34 32 37 36 33 29 29
51 51 51 51 51 51 51 51 52 52 53 53 54 54 54 49 46 45 46 45 42 28 7 20 30 30 31 32 31 38 37 39 37 30 28 27 31 31 30 32 34 37 33 31 30 29 24
49 48 48 49 48 48 48 49 49 50 51 52 52 53 53 46 41 46 46 42 29 16 22 19 24 28 27 25 29 29 31 32 27 22 20 24 27 32 32 30 34 34 29 23 27 23 24
46 46 47 46 46 46 46 47 48 48 50 50 51 53 52 45 46 46 45 33 14 19 18 26 25 27 25 25 23 27 25 23 26 24 23 22 20 29 29 30 27 31 30 23 17 19 21
45 44 44 44 45 45 45 46 47 48 49 50 51 49 47 48 47 45 39 27 20 27 24 24 23 22 21 24 19 21 21 21 24 24 22 21 21 26 28 27 27 27 26 28 25 24 19
43 43 43 43 44 44 44 45 45 47 48 49 47 46 43 47 45 44 35 28 32 26 27 25 16 21 14 18 19 18 16 20 23 25 26 23 19 23 27 29 29 27 27 23 25 19 18
42 43 42 43 42 43 44 44 44 44 47 48 46 42 43 46 45 39 29 31 34 29 28 26 22 19 18 16 16 17 15 20 24 26 27 26 23 21 24 24 24 26 24 25 23 23 18
42 42 42 42 42 42 42 44 44 44 46 43 43 36 45 46 34 36 34 34 30 27 31 29 28 26 20 17 17 19 20 17 25 29 26 27 24 23 22 24 24 24 24 23 22 19 19
40 41 41 41 41 41 41 41 42 43 44 41 38 39 45 42 27 26 29 30 26 26 29 29 28 29 26 21 16 20 21 31 30 28 24 24 21 19 20 22 26 22 21 21 21 22 19
40 40 40 40 41 42 41 41 41 42 42 42 38 33 38 39 36 32 31 30 29 32 29 29 27 27 26 23 23 20 23 31 31 31 37 32 23 19 16 16 19 17 20 21 21 21 19
39 39 40 40 40 40 40 40 40 43 45 43 38 34 36 31 33 31 31 32 29 30 29 29 26 26 25 23 22 22 23 28 33 36 32 30 25 24 24 23 23 22 21 20 20 20 17
39 39 38 39 39 39 39 40 39 41 43 40 34 35 33 31 32 32 32 31 29 31 31 31 30 33 31 25 23 23 23 24 24 34 31 31 23 26 22 23 23 22 23 22 21 20 21
38 38 39 39 39 39 39 41 40 39 41 35 36 36 34 28 28 25 23 26 27 29 31 33 31 31 31 30 28 28 28 26 25 31 31 28 26 23 20 21 21 17 20 21 22 22 20
38 38 39 39 39 39 38 38 39 39 38 38 36 37 31 23 24 24 24 24 24 25 24 26 26 25 32 33 32 30 28 27 26 26 31 27 26 24 21 21 14 18 24 23 22 23 21
38 39 39 39 37 38 38 38 38 38 39 36 37 36 31 25 25 25 25 23 25 25 27 28 29 27 33 30 27 26 23 25 26 27 26 26 25 21 19 19 18 20 23 21 19 19 23
40 40 40 39 39 38 38 38 38 37 38 36 36 38 36 29 22 27 28 28 25 22 23 26 31 35 34 29 26 27 23 21 20 24 29 28 26 22 21 19 17 19 24 24 22 18 23
39 40 40 39 39 38 38 37 37 37 37 36 37 38 36 29 28 28 26 27 30 29 28 27 26 27 27 28 26 25 26 21 17 18 23 25 25 23 22 21 22 24 24 25 18 19 24
38 38 38 38 38 38 37 37 37 38 37 38 36 38 36 30 28 28 28 28 27 28 26 25 24 23 27 28 31 27 27 24 22 21 24 21 23 23 22 20 17 24 24 20 23 26 24
38 38 38 38 38 38 38 37 37 38 38 39 34 36 38 35 32 32 32 31 33 34 33 31 29 27 29 25 26 27 22 23 23 24 21 19 22 23 22 21 23 25 23 24 27 25 25
Lifted_Index
10 10 10 10 9 9 9 9 8 8 8 8 8 8 9 9 8 8 8 7 7 7 7 7 6 6 6 6 6 6 5 4 3 3 2 2 2 2 2 1 1 0 -0 -0 0 1 1
10 10 10 10 9 9 9 9 8 8 8 8 8 8 9 9 9 8 8 7 7 7 7 7 6 6 6 6 6 6 5 4 3 3 2 2 2 2 2 1 1 0 -0 -0 -0 1 1
10 10 10 10 10 9 9 9 9 8 8 8 8 8 9 9 8 8 8 7 7 7 7 6 6 6 6 6 6 6 5 4 3 3 2 2 2 2 2 2 1 0 0 -0 0 0 1
10 10 10 10 10 9 9 9 9 8 8 8 8 8 8 8 8 8 8 7 7 7 7 6 6 6 6 6 6 5 5 4 3 3 2 2 2 2 2 1 1 0 0 0 0 1 1
10 10 10 10 10 10 9 9 9 9 9 9 9 8 8 8 8 8 7 7 7 7 7 6 6 7 7 6 6 5 5 4 3 2 2 2 2 2 1 1 1 1 0 0 0 0 0
10 10 10 9 9 9 9 9 9 8 8 8 8 8 8 8 8 7 7 8 7 7 7 7 7 7 7 6 6 5 5 4 3 2 2 2 2 2 2 1 1 1 1 1 0 0 0
10 9 9 9 9 9 9 8 8 8 8 8 8 8 8 8 8 8 8 8 8 7 7 7 7 7 7 7 6 5 5 4 4 3 2 2 2 2 2 2 2 1 1 1 1 0 0
9 9 9 9 9 9 8 8 8 8 8 8 8 8 8 8 8 8 8 8 8 8 7 7 8 8 8 7 7 6 5 5 4 4 3 3 3 2 2 2 2 1 1 1 1 1 1
9 9 8 9 9 8 8 8 8 8 8 8 8 8 8 8 8 8 9 9 9 8 7 6 7 7 7 7 7 6 5 5 5 4 4 3 3 3 2 2 2 1 1 1 1 1 1
8 8 8 8 8 9 9 9 8 8 8 8 8 8 8 9 9 8 8 9 9 7 5 5 6 7 7 7 7 6 6 6 5 5 5 4 3 3 2 2 2 1 1 1 1 1 1
8 8 9 9 9 9 9 9 9 9 9 8 8 8 8 8 9 8 8 9 8 6 4 4 6 6 7 7 6 6 6 6 6 6 5 4 3 3 3 2 2 1 1 1 1 1 1
9 9 9 10 10 10 10 10 10 10 10 9 9 8 8 9 8 8 8 8 6 4 3 4 5 5 6 6 6 6 6 6 6 5 5 4 4 3 3 3 2 2 2 1 1 1 1
10 10 11 11 11 12 12 11 11 11 11 10 10 9 8 9 8 8 7 6 4 3 3 4 5 5 5 5 5 5 5 5 5 4 4 3 3 3 3 3 3 2 2 1 1 0 1
12 12 12 13 13 13 13 12 12 12 11 11 10 9 8 8 8 8 6 4 3 3 4 4 4 4 4 4 4 4 4 4 4 4 3 3 3 3 4 3 3 2 2 1 1 0 1
14 14 14 14 14 14 13 13 13 12 12 11 10 8 7 7 7 7 5 4 3 3 4 4 4 4 4 4 4 4 4 4 4 5 4 3 3 3 4 4 3 2 2 1 1 1 0
14 14 15 15 15 14 14 14 14 13 12 11 9 8 7 6 7 6 5 3 3 4 4 4 3 3 3 3 4 4 3 4 5 5 5 4 3 3 4 4 3 3 2 2 1 1 0
15 15 15 15 15 15 15 14 14 14 13 12 9 8 7 7 7 6 5 4 4 4 5 5 4 4 3 3 3 3 3 4 5 5 5 5 3 3 3 4 3 3 3 2 2 1 1
15 15 16 15 15 15 15 15 15 15 14 12 10 8 7 7 7 6 6 5 5 5 6 6 5 5 4 4 3 3 4 4 4 5 5 5 4 2 3 3 3 3 3 3 3 2 2
16 16 16 16 15 15 15 15 15 15 15 13 11 8 7 7 7 7 7 7 6 6 6 6 6 6 5 4 4 4 4 4 4 4 5 4 3 2 2 2 3 3 3 3 3 3 2
16 16 16 16 15 15 16 16 16 15 15 13 11 9 8 7 7 7 7 7 7 6 6 6 6 6 5 5 4 4 4 4 4 4 5 4 3 2 2 2 3 2 3 3 3 3 2
16 16 15 15 15 15 15 15 15 15 14 13 11 10 9 9 9 8 8 8 7 7 6 6 6 6 6 5 5 5 5 5 4 4 5 4 3 2 2 2 2 2 2 2 2 2 2
15 15 15 15 15 15 15 15 15 15 15 14 13 12 12 11 10 10 9 8 8 8 7 7 6 6 6 5 5 5 5 5 5 5 4 4 3 3 2 2 2 2 1 1 2 2 2
15 15 15 15 15 15 15 15 16 16 15 15 15 14 13 12 11 10 10 10 10 9 9 8 7 6 6 6 6 6 5 5 5 5 5 4 3 3 2 2 2 2 1 1 1 2 2
15 15 15 15 15 15 16 16 16 16 16 16 16 15 14 12 11 11 11 11 11 11 11 10 9 7 7 7 6 6 6 5 5 5 5 4 3 3 2 2 2 2 2 1 1 2 2
14 14 14 15 15 15 15 16 16 16 16 16 15 15 14 13 12 12 13 12 12 12 12 11 10 9 8 7 6 6 5 5 5 5 5 5 4 3 2 2 2 2 2 1 1 1 1
14 14 14 14 15 15 15 15 15 15 15 15 15 15 14 14 13 13 13 13 13 12 12 12 11 10 9 7 6 5 5 5 5 5 5 5 4 4 3 2 3 3 2 1 1 1 1
14 14 14 14 14 14 15 15 15 15 15 15 14 14 14 14 14 14 13 13 13 12 12 12 11 11 9 7 6 5 5 5 5 5 5 5 4 4 3 3 3 3 2 1 1 1 1
13 13 13 14 14 14 14 14 14 14 14 14 14 14 14 14 14 14 13 13 13 12 11 11 11 10 9 7 5 4 4 4 5 5 5 5 4 4 4 3 3 3 2 1 0 0 0
13 13 13 13 13 13 14 14 14 13 13 13 14 14 13 14 14 14 14 13 12 11 10 10 10 9 8 6 4 3 3 4 5 5 5 5 4 4 4 4 3 2 2 1 0 0 0